Location: ???? ????
(41.4149°N, 22.8816°E)
Time: 13:55:28
(UTC+00:00)

IDEFIX/ARIANE 42P - Pass Details

Date: 14 July 2020
Orbit: 784 x 804 km, 98.4° (Epoch: 03 August)

Event Time Altitude Azimuth Distance (km) Brightness Sun altitude
Rises 01:53:44 0° 11° (N) 3,289 6.7 -11.9°
Reaches altitude 10° 01:56:04 10° 10° (N) 2,354 5.9 -11.6°
Maximum altitude 02:01:15 76° 286° (WNW) 812 2.6 -10.8°
Drops below altitude 10° 02:06:23 10° 201° (SSW) 2,335 4.5 -10.1°
Enters shadow 02:06:34 - 201° (SSW) 2,407 4.5 -10.1°
